Simultaneous Nadir Overpasses (SNOs) Predictions

Prediction of SNOs between GOES-17 and AQUA Satellite Orbit:

Table of predicted SNOs for the next 14.0 days since TLE Epoch: 7/31/2021
Index Date Time (GOES-17) GOES-17 Lat,Lon AQUA Lat,Lon Distance(km) Time Diff (sec)
1 07/31/2021 22:36:24 -0.03,-137.21 0.47,-134.97 255.02 80
2 08/01/2021 10:57:39 0.03,-137.21 0.65,-140.13 331.38 80
3 08/03/2021 10:42:48 0.03,-137.21 0.01,-137.17 4.51 80
4 08/05/2021 10:30:37 -0.02,-137.20 -0.64,-134.22 338.49 80
5 08/05/2021 22:52:02 0.02,-137.20 -0.43,-139.42 252.27 80
6 08/07/2021 22:42:30 0.01,-137.18 0.16,-136.45 82.25 80
7 08/09/2021 22:30:18 0.01,-137.16 0.76,-133.49 416.25 80
8 08/10/2021 10:51:34 -0.01,-137.15 0.29,-138.66 170.71 80
9 08/12/2021 10:36:42 -0.01,-137.12 -0.31,-135.69 162.66 80
10 08/12/2021 22:58:06 0.01,-137.11 -0.82,-140.88 428.66 80
